Orbital Elements at Epoch 2459200.5 (2020-Dec-17.0) TDB
Reference: JPL 11 (heliocentric ecliptic J2000)
Element | Value | Uncertainty (1-sigma) | Units |
e | .06799894338981724 | 4.72e-08 | |
a | 3.246874846248924 | 3.019e-08 | au |
q | 3.026090787385022 | 1.6573e-07 | au |
i | 5.193149844385858 | 5.1684e-06 | deg |
node | 179.8543045715015 | 7.1832e-05 | deg |
peri | 168.0280071696149 | 8.9163e-05 | deg |
M | 303.1004168845276 | 5.4538e-05 | deg |
tp | 2459538.256202891808 (2021-Nov-19.75620289) | 0.00032576 | TDB |
period | 2136.961755840828 5.85 | 2.9804e-05 8.16e-08 | d yr |
n | .1684634734412227 | 2.3496e-09 | deg/d |
Q | 3.467658905112826 | 3.2243e-08 | au |
|
| | Orbit Determination Parameters
Additional Information
|